| time (UTC) | temp C | wind direction | speed KPH | gust KPH | rain 1hr cm | rain 24hr cm | rain mn cm | humidity % | barometer mb |
| 20260506024600 | 8 | 38 | 16.1 | 30.6 | 0.00 | 1.17 | 1.17 | 92 | 1007.9 |
| 20260506023059 | 8 | 50 | 11.3 | 24.1 | 0.00 | 1.17 | 1.17 | 93 | 1007.8 |
| 20260506021553 | 8 | 76 | 14.5 | 27.4 | 0.00 | 1.17 | 1.17 | 92 | 1007.2 |
| 20260506020051 | 8 | 61 | 16.1 | 30.6 | 0.00 | 1.17 | 1.17 | 93 | 1007.3 |
| 20260506014548 | 8 | 80 | 11.3 | 22.5 | 0.00 | 1.17 | 1.17 | 92 | 1007.0 |
| 20260506013046 | 8 | 65 | 12.9 | 24.1 | 0.00 | 1.17 | 1.17 | 92 | 1007.5 |
| 20260506011544 | 9 | 22 | 8.0 | 17.7 | 0.00 | 1.17 | 1.17 | 91 | 1007.1 |
| 20260506010043 | 9 | 36 | 8.0 | 22.5 | 0.00 | 1.17 | 1.17 | 91 | 1006.7 |
| 20260506004541 | 9 | 36 | 11.3 | 19.3 | 0.00 | 1.17 | 1.17 | 92 | 1006.7 |
| 20260506003040 | 9 | 19 | 12.9 | 25.7 | 0.00 | 1.17 | 1.17 | 91 | 1006.5 |
| 20260506001540 | 9 | 22 | 11.3 | 24.1 | 0.00 | 1.17 | 1.17 | 92 | 1006.3 |
| 20260506000036 | 9 | 55 | 11.3 | 27.4 | 0.00 | 1.17 | 1.17 | 92 | 1005.9 |
| 20260505234536 | 9 | 15 | 14.5 | 30.6 | 0.00 | 1.17 | 1.17 | 92 | 1005.9 |
| 20260505233029 | 10 | 24 | 14.5 | 24.1 | 0.00 | 1.17 | 1.17 | 92 | 1005.1 |
| 20260505231527 | 10 | 13 | 9.7 | 25.7 | 0.00 | 1.17 | 1.17 | 92 | 1005.4 |
| 20260505230044 | 10 | 19 | 16.1 | 27.4 | 0.00 | 1.17 | 1.17 | 91 | 1005.2 |
| 20260505224521 | 11 | 34 | 14.5 | 25.7 | 0.00 | 1.17 | 1.17 | 91 | 1004.6 |
| 20260505223019 | 11 | 32 | 11.3 | 25.7 | 0.00 | 1.17 | 1.17 | 90 | 1004.8 |
| 20260505221517 | 11 | 5 | 12.9 | 30.6 | 0.00 | 1.17 | 1.17 | 90 | 1004.5 |
| 20260505220016 | 12 | 30 | 12.9 | 25.7 | 0.00 | 1.17 | 1.17 | 90 | 1004.0 |
| 20260505214512 | 12 | 9 | 9.7 | 27.4 | 0.00 | 1.17 | 1.17 | 90 | 1003.9 |
| 20260505213012 | 12 | 41 | 17.7 | 25.7 | 0.00 | 1.17 | 1.17 | 89 | 1004.2 |
| 20260505211512 | 12 | 9 | 12.9 | 22.5 | 0.00 | 1.17 | 1.17 | 90 | 1003.9 |
| 20260505210005 | 13 | 12 | 14.5 | 27.4 | 0.00 | 1.17 | 1.17 | 90 | 1003.5 |
| 20260505204503 | 13 | 37 | 9.7 | 22.5 | 0.00 | 1.17 | 1.17 | 91 | 1003.7 |
| 20260505203003 | 13 | 9 | 11.3 | 24.1 | 0.00 | 1.17 | 1.17 | 91 | 1003.5 |
| 20260505201502 | 13 | 34 | 11.3 | 24.1 | 0.00 | 1.17 | 1.17 | 91 | 1003.6 |
| 20260505200002 | 13 | 360 | 11.3 | 29.0 | 0.00 | 1.17 | 1.17 | 91 | 1003.6 |
| 20260505194558 | 13 | 9 | 12.9 | 24.1 | 0.00 | 1.17 | 1.17 | 90 | 1003.7 |
| 20260505193056 | 14 | 15 | 12.9 | 22.5 | 0.00 | 1.17 | 1.17 | 90 | 1003.6 |
| 20260505191610 | 14 | 37 | 12.9 | 25.7 | 0.00 | 1.17 | 1.17 | 90 | 1002.2 |
| 20260505190052 | 15 | 360 | 22.5 | 33.8 | 0.00 | 1.17 | 1.17 | 89 | 1002.9 |
| 20260505184548 | 16 | 32 | 20.9 | 33.8 | 0.00 | 1.17 | 1.17 | 87 | 1002.9 |
| 20260505183050 | 18 | 311 | 8.0 | 17.7 | 0.00 | 1.17 | 1.17 | 89 | 1002.4 |
| 20260505181549 | 18 | 17 | 9.7 | 17.7 | 0.00 | 1.17 | 1.17 | 87 | 1002.5 |
| 20260505174554 | 21 | 157 | 4.8 | 11.3 | 0.00 | 1.17 | 1.17 | 85 | 1001.9 |
| 20260505173047 | 20 | 176 | 4.8 | 16.1 | 0.00 | 1.17 | 1.17 | 86 | 1002.2 |
| 20260505171548 | 20 | 159 | 11.3 | 16.1 | 0.00 | 1.17 | 1.17 | 87 | 1002.1 |
| 20260505170044 | 20 | 134 | 3.2 | 8.0 | 0.00 | 1.17 | 1.17 | 87 | 1002.2 |
| 20260505164546 | 20 | 88 | 4.8 | 11.3 | 0.00 | 1.17 | 1.17 | 86 | 1002.3 |
| 20260505163043 | 20 | 198 | 1.6 | 6.4 | 0.00 | 1.17 | 1.17 | 86 | 1002.3 |
| 20260505161550 | 20 | 167 | 4.8 | 14.5 | 0.00 | 1.17 | 1.17 | 85 | 1002.1 |
| 20260505153039 | 19 | 146 | 11.3 | 16.1 | 0.00 | 1.17 | 1.17 | 88 | 1001.8 |
| 20260505151537 | 19 | 121 | 4.8 | 16.1 | 0.00 | 1.17 | 1.17 | 89 | 1001.9 |
| 20260505124529 | 16 | 152 | 12.9 | 17.7 | 0.03 | 1.17 | 1.17 | 93 | 1002.4 |
| 20260505123033 | 15 | 147 | 12.9 | 20.9 | 0.03 | 1.17 | 1.17 | 93 | 1002.4 |
| 20260505121527 | 15 | 151 | 14.5 | 19.3 | 0.03 | 1.17 | 1.17 | 94 | 1002.3 |
| 20260505120029 | 15 | 137 | 9.7 | 17.7 | 0.03 | 1.17 | 1.17 | 94 | 1002.3 |
| 20260505114526 | 15 | 148 | 14.5 | 19.3 | 0.03 | 1.17 | 1.17 | 94 | 1002.2 |
| 20260505113026 | 15 | 138 | 16.1 | 20.9 | 0.00 | 1.14 | 1.14 | 94 | 1002.4 |
| 20260505111525 | 15 | 109 | 12.9 | 22.5 | 0.00 | 1.14 | 1.14 | 94 | 1002.3 |
| 20260505101541 | 15 | 78 | 9.7 | 17.7 | 0.05 | 1.14 | 1.14 | 94 | 1002.7 |
| 20260505100039 | 15 | 88 | 11.3 | 17.7 | 0.05 | 1.14 | 1.14 | 94 | 1002.7 |
| 20260505094618 | 15 | 74 | 9.7 | 17.7 | 0.08 | 1.14 | 1.14 | 94 | 1002.8 |
| 20260505093021 | 16 | 55 | 8.0 | 17.7 | 0.05 | 1.12 | 1.12 | 93 | 1002.9 |
| 20260505091518 | 16 | 61 | 8.0 | 14.5 | 0.13 | 1.12 | 1.12 | 93 | 1002.8 |
| 20260505090014 | 16 | 51 | 3.2 | 9.7 | 0.58 | 1.09 | 1.09 | 93 | 1002.9 |
| 20260505084514 | 16 | 70 | 1.6 | 8.0 | 0.91 | 1.07 | 1.07 | 93 | 1002.8 |
| 20260505083013 | 16 | 71 | 4.8 | 8.0 | 0.97 | 1.07 | 1.07 | 92 | 1002.8 |
| 20260505081513 | 16 | 351 | 8.0 | 16.1 | 0.91 | 1.02 | 1.02 | 91 | 1003.2 |
| 20260505080009 | 16 | 327 | 12.9 | 30.6 | 0.43 | 0.53 | 0.53 | 89 | 1002.4 |
| 20260505074509 | 17 | 342 | 12.9 | 37.0 | 0.18 | 0.20 | 0.20 | 87 | 1002.1 |
| 20260505073022 | 16 | 350 | 4.8 | 16.1 | 0.08 | 0.10 | 0.10 | 86 | 1002.0 |
| 20260505071505 | 16 | 101 | 11.3 | 16.1 | 0.10 | 0.10 | 0.10 | 88 | 1001.0 |
| 20260505070003 | 16 | 137 | 17.7 | 22.5 | 0.10 | 0.10 | 0.10 | 87 | 1001.2 |
| 20260505064559 | 17 | 12 | 3.2 | 8.0 | 0.03 | 0.03 | 0.03 | 84 | 1003.0 |
| 20260505063113 | 17 | 52 | 1.6 | 8.0 | 0.03 | 0.03 | 0.03 | 82 | 1002.8 |
| 20260505061554 | 17 | 126 | 0.0 | 14.5 | 0.03 | 0.03 | 0.03 | 80 | 1002.6 |
| 20260505060051 | 18 | 72 | 3.2 | 14.5 | 0.00 | 0.00 | 0.00 | 76 | 1003.2 |
| 20260505054549 | 17 | 218 | 0.0 | 4.8 | 0.00 | 0.00 | 0.00 | 75 | 1003.4 |
| 20260505053049 | 18 | 218 | 3.2 | 6.4 | 0.00 | 0.00 | 0.00 | 74 | 1003.1 |
| 20260505051548 | 18 | 136 | 8.0 | 19.3 | 0.00 | 0.00 | 0.00 | 75 | 1002.8 |
| 20260505041545 | 17 | 179 | 8.0 | 16.1 | 0.00 | 0.00 | 0.00 | 76 | 1003.7 |
| 20260505040045 | 17 | 178 | 8.0 | 12.9 | 0.00 | 0.00 | 0.00 | 77 | 1003.7 |
| 20260505034548 | 17 | 177 | 3.2 | 12.9 | 0.00 | 0.00 | 0.00 | 76 | 1003.9 |
| 20260505033043 | 18 | 174 | 4.8 | 11.3 | 0.00 | 0.00 | 0.00 | 76 | 1004.0 |
| 20260505031548 | 18 | 182 | 4.8 | 12.9 | 0.00 | 0.00 | 0.00 | 76 | 1004.0 |
| 20260505030043 | 18 | 192 | 4.8 | 8.0 | 0.00 | 0.00 | 0.00 | 75 | 1004.1 |